Time,TemperatureF,DewpointF,PressureIn,WindDirection,WindDirectionDegrees,WindSpeedMPH,WindSpeedGustMPH,Humidity,HourlyPrecipIn,Conditions,Clouds,dailyrainin,SoftwareType,DateUTC
2013-03-01 00:01:00,53.0,31.0,30.34,West,281,0.0,-999.0,42,-99.99,,,-99.99,,2013-03-01 08:01:00,
2013-03-01 00:11:00,53.0,31.0,30.34,West,281,0.0,-999.0,42,-99.99,,,-99.99,,2013-03-01 08:11:00,
2013-03-01 00:22:00,52.0,30.0,30.34,West,281,0.0,-999.0,43,-99.99,,,-99.99,,2013-03-01 08:22:00,
2013-03-01 00:32:00,52.0,30.0,30.34,West,280,0.0,-999.0,43,-99.99,,,-99.99,,2013-03-01 08:32:00,
2013-03-01 00:42:00,52.0,30.0,30.34,West,280,0.0,-999.0,43,-99.99,,,-99.99,,2013-03-01 08:42:00,
2013-03-01 00:52:00,51.0,30.0,30.34,West,280,0.0,-999.0,44,-99.99,,,-99.99,,2013-03-01 08:52:00,
2013-03-01 01:01:00,51.0,30.0,30.34,West,280,0.0,-999.0,44,-99.99,,,-99.99,,2013-03-01 09:01:00,
2013-03-01 01:11:00,51.0,30.0,30.34,West,280,0.0,-999.0,44,-99.99,,,-99.99,,2013-03-01 09:11:00,
2013-03-01 01:21:00,51.0,30.0,30.33,West,280,0.0,-999.0,45,-99.99,,,-99.99,,2013-03-01 09:21:00,
2013-03-01 01:31:00,51.0,30.0,30.33,West,280,0.0,-999.0,44,-99.99,,,-99.99,,2013-03-01 09:31:00,
2013-03-01 01:42:00,51.0,30.0,30.33,West,280,0.0,-999.0,44,-99.99,,,-99.99,,2013-03-01 09:42:00,
2013-03-01 01:52:00,52.0,29.0,30.33,West,278,0.0,-999.0,41,-99.99,,,-99.99,,2013-03-01 09:52:00,
2013-03-01 02:01:00,59.0,28.0,30.33,ENE,74,1.0,-999.0,30,-99.99,,,-99.99,,2013-03-01 10:01:00,
2013-03-01 02:11:00,59.0,28.0,30.33,ENE,74,1.0,-999.0,30,-99.99,,,-99.99,,2013-03-01 10:11:00,
2013-03-01 02:31:00,63.0,27.0,30.32,ESE,109,0.0,-999.0,25,-99.99,,,-99.99,,2013-03-01 10:31:00,
2013-03-01 02:52:00,65.0,25.0,30.31,East,80,1.0,-999.0,22,-99.99,,,-99.99,,2013-03-01 10:52:00,
2013-03-01 03:01:00,66.0,25.0,30.30,North,9,1.0,-999.0,21,-99.99,,,-99.99,,2013-03-01 11:01:00,
2013-03-01 03:22:00,65.0,25.0,30.30,SE,134,0.0,-999.0,22,-99.99,,,-99.99,,2013-03-01 11:22:00,
2013-03-01 03:31:00,65.0,24.0,30.30,SE,144,0.0,-999.0,21,-99.99,,,-99.99,,2013-03-01 11:31:00,
2013-03-01 03:52:00,67.0,23.0,30.30,NNE,18,1.0,-999.0,19,-99.99,,,-99.99,,2013-03-01 11:52:00,
2013-03-01 04:01:00,68.0,24.0,30.30,NE,34,0.0,-999.0,19,-99.99,,,-99.99,,2013-03-01 12:01:00,
2013-03-01 04:21:00,68.0,24.0,30.30,NNE,19,0.0,-999.0,19,-99.99,,,-99.99,,2013-03-01 12:21:00,
2013-03-01 04:32:00,69.0,24.0,30.30,East,83,1.0,-999.0,18,-99.99,,,-99.99,,2013-03-01 12:32:00,
2013-03-01 04:52:00,69.0,24.0,30.29,NE,55,1.0,-999.0,18,-99.99,,,-99.99,,2013-03-01 12:52:00,
2013-03-01 05:01:00,67.0,23.0,30.29,North,351,0.0,-999.0,19,-99.99,,,-99.99,,2013-03-01 13:01:00,
2013-03-01 05:21:00,67.0,25.0,30.30,NE,40,0.0,-999.0,20,-99.99,,,-99.99,,2013-03-01 13:21:00,
2013-03-01 05:32:00,66.0,25.0,30.30,NE,42,0.0,-999.0,21,-99.99,,,-99.99,,2013-03-01 13:32:00,
2013-03-01 05:51:00,66.0,26.0,30.30,NE,34,0.0,-999.0,22,-99.99,,,-99.99,,2013-03-01 13:51:00,
2013-03-01 06:01:00,65.0,25.0,30.30,North,360,0.0,-999.0,22,-99.99,,,-99.99,,2013-03-01 14:01:00,
2013-03-01 06:21:00,63.0,26.0,30.30,ENE,62,0.0,-999.0,24,-99.99,,,-99.99,,2013-03-01 14:21:00,
2013-03-01 06:32:00,61.0,25.0,30.30,ENE,62,0.0,-999.0,25,-99.99,,,-99.99,,2013-03-01 14:32:00,
2013-03-01 06:41:00,61.0,25.0,30.30,ENE,62,0.0,-999.0,25,-99.99,,,-99.99,,2013-03-01 14:41:00,
2013-03-01 06:52:00,59.0,24.0,30.29,ENE,62,0.0,-999.0,26,-99.99,,,-99.99,,2013-03-01 14:52:00,
2013-03-01 07:01:00,60.0,25.0,30.29,ENE,63,0.0,-999.0,26,-99.99,,,-99.99,,2013-03-01 15:01:00,
2013-03-01 07:11:00,63.0,26.0,30.29,NE,39,0.0,-999.0,24,-99.99,,,-99.99,,2013-03-01 15:11:00,
2013-03-01 07:21:00,63.0,26.0,30.29,NE,39,0.0,-999.0,24,-99.99,,,-99.99,,2013-03-01 15:21:00,
2013-03-01 07:31:00,66.0,27.0,30.29,NE,52,0.0,-999.0,23,-99.99,,,-99.99,,2013-03-01 15:31:00,
2013-03-01 07:51:00,67.0,27.0,30.30,ENE,71,0.0,-999.0,22,-99.99,,,-99.99,,2013-03-01 15:51:00,
2013-03-01 08:01:00,67.0,27.0,30.30,NE,44,0.0,-999.0,22,-99.99,,,-99.99,,2013-03-01 16:01:00,
2013-03-01 08:11:00,67.0,27.0,30.30,NE,44,0.0,-999.0,22,-99.99,,,-99.99,,2013-03-01 16:11:00,
2013-03-01 08:31:00,70.0,26.0,30.31,West,272,1.0,-999.0,19,-99.99,,,-99.99,,2013-03-01 16:31:00,
2013-03-01 08:51:00,72.0,25.0,30.31,ENE,74,1.0,-999.0,17,-99.99,,,-99.99,,2013-03-01 16:51:00,
2013-03-01 09:01:00,73.0,26.0,30.31,NE,54,0.0,-999.0,17,-99.99,,,-99.99,,2013-03-01 17:01:00,
2013-03-01 09:21:00,74.0,26.0,30.31,NNE,29,1.0,-999.0,17,-99.99,,,-99.99,,2013-03-01 17:21:00,
2013-03-01 09:31:00,75.0,27.0,30.32,ENE,59,0.0,-999.0,17,-99.99,,,-99.99,,2013-03-01 17:31:00,
2013-03-01 09:52:00,75.0,26.0,30.31,NNE,17,1.0,-999.0,16,-99.99,,,-99.99,,2013-03-01 17:52:00,
2013-03-01 10:01:00,76.0,27.0,30.30,NE,36,1.0,-999.0,16,-99.99,,,-99.99,,2013-03-01 18:01:00,
2013-03-01 10:12:00,76.0,27.0,30.30,NE,36,1.0,-999.0,16,-99.99,,,-99.99,,2013-03-01 18:12:00,
2013-03-01 10:21:00,77.0,27.0,30.29,NE,48,1.0,-999.0,16,-99.99,,,-99.99,,2013-03-01 18:21:00,
2013-03-01 10:31:00,77.0,27.0,30.29,NE,48,1.0,-999.0,16,-99.99,,,-99.99,,2013-03-01 18:31:00,
2013-03-01 10:41:00,77.0,27.0,30.29,NE,48,1.0,-999.0,16,-99.99,,,-99.99,,2013-03-01 18:41:00,
2013-03-01 10:52:00,78.0,27.0,30.29,North,355,1.0,-999.0,15,-99.99,,,-99.99,,2013-03-01 18:52:00,
2013-03-01 11:01:00,79.0,27.0,30.29,ENE,76,1.0,-999.0,15,-99.99,,,-99.99,,2013-03-01 19:01:00,
2013-03-01 11:11:00,79.0,27.0,30.29,ENE,76,1.0,-999.0,15,-99.99,,,-99.99,,2013-03-01 19:11:00,
2013-03-01 11:21:00,80.0,28.0,30.29,North,10,1.0,-999.0,15,-99.99,,,-99.99,,2013-03-01 19:21:00,
2013-03-01 11:31:00,80.0,28.0,30.28,East,96,2.0,-999.0,15,-99.99,,,-99.99,,2013-03-01 19:31:00,
2013-03-01 11:41:00,80.0,28.0,30.28,East,96,2.0,-999.0,15,-99.99,,,-99.99,,2013-03-01 19:41:00,
2013-03-01 11:51:00,81.0,29.0,30.27,NNE,19,1.0,-999.0,15,-99.99,,,-99.99,,2013-03-01 19:51:00,
2013-03-01 12:01:00,81.0,29.0,30.27,NE,53,2.0,-999.0,15,-99.99,,,-99.99,,2013-03-01 20:01:00,
2013-03-01 12:11:00,81.0,29.0,30.27,NE,53,2.0,-999.0,15,-99.99,,,-99.99,,2013-03-01 20:11:00,
2013-03-01 12:21:00,82.0,30.0,30.26,NNE,26,1.0,-999.0,15,-99.99,,,-99.99,,2013-03-01 20:21:00,
2013-03-01 12:31:00,82.0,28.0,30.25,NE,51,2.0,-999.0,14,-99.99,,,-99.99,,2013-03-01 20:31:00,
2013-03-01 12:41:00,82.0,28.0,30.25,NE,51,2.0,-999.0,14,-99.99,,,-99.99,,2013-03-01 20:41:00,
2013-03-01 12:52:00,82.0,28.0,30.25,NE,51,2.0,-999.0,14,-99.99,,,-99.99,,2013-03-01 20:52:00,
2013-03-01 13:01:00,83.0,29.0,30.23,NE,49,2.0,-999.0,14,-99.99,,,-99.99,,2013-03-01 21:01:00,
2013-03-01 13:11:00,84.0,30.0,30.22,NNE,26,0.0,-999.0,14,-99.99,,,-99.99,,2013-03-01 21:11:00,
2013-03-01 13:21:00,84.0,30.0,30.22,NNE,26,0.0,-999.0,14,-99.99,,,-99.99,,2013-03-01 21:21:00,
2013-03-01 13:31:00,83.0,29.0,30.21,NE,42,1.0,-999.0,14,-99.99,,,-99.99,,2013-03-01 21:31:00,
2013-03-01 13:41:00,83.0,29.0,30.21,NE,42,1.0,-999.0,14,-99.99,,,-99.99,,2013-03-01 21:41:00,
2013-03-01 13:51:00,84.0,30.0,30.21,NE,40,1.0,-999.0,14,-99.99,,,-99.99,,2013-03-01 21:51:00,
2013-03-01 14:01:00,85.0,32.0,30.21,NE,37,1.0,-999.0,15,-99.99,,,-99.99,,2013-03-01 22:01:00,
2013-03-01 14:11:00,85.0,30.0,30.20,SE,133,0.0,-999.0,14,-99.99,,,-99.99,,2013-03-01 22:11:00,
2013-03-01 14:21:00,85.0,30.0,30.20,SE,133,0.0,-999.0,14,-99.99,,,-99.99,,2013-03-01 22:21:00,
2013-03-01 14:31:00,85.0,30.0,30.20,NE,34,0.0,-999.0,14,-99.99,,,-99.99,,2013-03-01 22:31:00,
2013-03-01 14:41:00,85.0,30.0,30.20,NE,34,0.0,-999.0,14,-99.99,,,-99.99,,2013-03-01 22:41:00,
2013-03-01 14:51:00,85.0,30.0,30.19,East,96,1.0,-999.0,14,-99.99,,,-99.99,,2013-03-01 22:51:00,
2013-03-01 15:01:00,85.0,30.0,30.19,NE,53,1.0,-999.0,14,-99.99,,,-99.99,,2013-03-01 23:01:00,
2013-03-01 15:11:00,85.0,30.0,30.19,NE,53,1.0,-999.0,14,-99.99,,,-99.99,,2013-03-01 23:11:00,
2013-03-01 15:21:00,85.0,30.0,30.19,East,88,1.0,-999.0,14,-99.99,,,-99.99,,2013-03-01 23:21:00,
2013-03-01 15:31:00,86.0,31.0,30.18,NNE,19,0.0,-999.0,14,-99.99,,,-99.99,,2013-03-01 23:31:00,
2013-03-01 15:41:00,86.0,31.0,30.18,NNE,19,0.0,-999.0,14,-99.99,,,-99.99,,2013-03-01 23:41:00,
2013-03-01 15:52:00,85.0,30.0,30.17,ENE,71,0.0,-999.0,14,-99.99,,,-99.99,,2013-03-01 23:52:00,
2013-03-01 16:01:00,86.0,29.0,30.18,ESE,103,0.0,-999.0,13,-99.99,,,-99.99,,2013-03-02 00:01:00,
2013-03-01 16:11:00,86.0,29.0,30.18,ESE,103,0.0,-999.0,13,-99.99,,,-99.99,,2013-03-02 00:11:00,
2013-03-01 16:21:00,86.0,31.0,30.18,East,83,1.0,-999.0,14,-99.99,,,-99.99,,2013-03-02 00:21:00,
2013-03-01 16:31:00,80.0,33.0,30.18,WSW,244,1.0,-999.0,18,-99.99,,,-99.99,,2013-03-02 00:31:00,
2013-03-01 16:41:00,80.0,33.0,30.18,WSW,244,1.0,-999.0,18,-99.99,,,-99.99,,2013-03-02 00:41:00,
2013-03-01 16:52:00,78.0,32.0,30.18,West,268,2.0,-999.0,19,-99.99,,,-99.99,,2013-03-02 00:52:00,
2013-03-01 17:01:00,77.0,30.0,30.18,SW,229,3.0,-999.0,18,-99.99,,,-99.99,,2013-03-02 01:01:00,
2013-03-01 17:11:00,77.0,30.0,30.18,SW,229,3.0,-999.0,18,-99.99,,,-99.99,,2013-03-02 01:11:00,
2013-03-01 17:21:00,77.0,30.0,30.19,WNW,283,1.0,-999.0,18,-99.99,,,-99.99,,2013-03-02 01:21:00,
2013-03-01 17:31:00,77.0,30.0,30.19,WSW,255,0.0,-999.0,18,-99.99,,,-99.99,,2013-03-02 01:31:00,
2013-03-01 17:41:00,77.0,30.0,30.19,WSW,255,0.0,-999.0,18,-99.99,,,-99.99,,2013-03-02 01:41:00,
2013-03-01 17:51:00,75.0,30.0,30.20,West,273,0.0,-999.0,19,-99.99,,,-99.99,,2013-03-02 01:51:00,
2013-03-01 18:01:00,74.0,30.0,30.20,West,267,0.0,-999.0,20,-99.99,,,-99.99,,2013-03-02 02:01:00,
2013-03-01 18:11:00,74.0,30.0,30.20,West,267,0.0,-999.0,20,-99.99,,,-99.99,,2013-03-02 02:11:00,
2013-03-01 18:21:00,73.0,31.0,30.20,West,267,0.0,-999.0,21,-99.99,,,-99.99,,2013-03-02 02:21:00,
2013-03-01 18:31:00,71.0,32.0,30.21,West,267,0.0,-999.0,24,-99.99,,,-99.99,,2013-03-02 02:31:00,
2013-03-01 18:41:00,71.0,32.0,30.21,West,267,0.0,-999.0,24,-99.99,,,-99.99,,2013-03-02 02:41:00,
2013-03-01 18:52:00,68.0,31.0,30.21,West,267,0.0,-999.0,25,-99.99,,,-99.99,,2013-03-02 02:52:00,
2013-03-01 19:01:00,66.0,30.0,30.22,West,267,0.0,-999.0,26,-99.99,,,-99.99,,2013-03-02 03:01:00,
2013-03-01 19:11:00,66.0,30.0,30.22,West,267,0.0,-999.0,26,-99.99,,,-99.99,,2013-03-02 03:11:00,
2013-03-01 19:21:00,64.0,30.0,30.22,West,267,0.0,-999.0,28,-99.99,,,-99.99,,2013-03-02 03:21:00,
2013-03-01 19:32:00,63.0,31.0,30.23,West,267,0.0,-999.0,30,-99.99,,,-99.99,,2013-03-02 03:32:00,
2013-03-01 19:41:00,63.0,31.0,30.23,West,267,0.0,-999.0,30,-99.99,,,-99.99,,2013-03-02 03:41:00,
2013-03-01 19:52:00,62.0,32.0,30.23,West,267,0.0,-999.0,32,-99.99,,,-99.99,,2013-03-02 03:52:00,
2013-03-01 20:01:00,61.0,31.0,30.23,West,267,0.0,-999.0,32,-99.99,,,-99.99,,2013-03-02 04:01:00,
2013-03-01 20:11:00,61.0,31.0,30.23,West,267,0.0,-999.0,32,-99.99,,,-99.99,,2013-03-02 04:11:00,
2013-03-01 20:21:00,61.0,30.0,30.23,West,267,0.0,-999.0,31,-99.99,,,-99.99,,2013-03-02 04:21:00,
2013-03-01 20:31:00,61.0,29.0,30.23,West,267,0.0,-999.0,30,-99.99,,,-99.99,,2013-03-02 04:31:00,
2013-03-01 20:41:00,61.0,29.0,30.23,West,267,0.0,-999.0,30,-99.99,,,-99.99,,2013-03-02 04:41:00,
2013-03-01 20:51:00,61.0,29.0,30.23,West,267,0.0,-999.0,30,-99.99,,,-99.99,,2013-03-02 04:51:00,
2013-03-01 21:01:00,59.0,30.0,30.23,West,265,0.0,-999.0,33,-99.99,,,-99.99,,2013-03-02 05:01:00,
2013-03-01 21:12:00,59.0,30.0,30.23,West,265,0.0,-999.0,33,-99.99,,,-99.99,,2013-03-02 05:12:00,
2013-03-01 21:22:00,58.0,30.0,30.23,West,266,0.0,-999.0,34,-99.99,,,-99.99,,2013-03-02 05:22:00,
2013-03-01 21:31:00,57.0,30.0,30.23,West,266,0.0,-999.0,35,-99.99,,,-99.99,,2013-03-02 05:31:00,
2013-03-01 21:41:00,57.0,30.0,30.23,West,266,0.0,-999.0,35,-99.99,,,-99.99,,2013-03-02 05:41:00,
2013-03-01 21:52:00,59.0,30.0,30.24,West,266,0.0,-999.0,33,-99.99,,,-99.99,,2013-03-02 05:52:00,
2013-03-01 22:01:00,59.0,30.0,30.24,West,265,0.0,-999.0,33,-99.99,,,-99.99,,2013-03-02 06:01:00,
2013-03-01 22:11:00,59.0,30.0,30.24,West,265,0.0,-999.0,33,-99.99,,,-99.99,,2013-03-02 06:11:00,
2013-03-01 22:21:00,59.0,30.0,30.24,West,265,0.0,-999.0,33,-99.99,,,-99.99,,2013-03-02 06:21:00,
2013-03-01 22:31:00,57.0,30.0,30.24,West,266,0.0,-999.0,35,-99.99,,,-99.99,,2013-03-02 06:31:00,
2013-03-01 22:41:00,57.0,30.0,30.24,West,266,0.0,-999.0,35,-99.99,,,-99.99,,2013-03-02 06:41:00,
2013-03-01 22:51:00,56.0,30.0,30.24,West,265,0.0,-999.0,37,-99.99,,,-99.99,,2013-03-02 06:51:00,
2013-03-01 23:01:00,56.0,31.0,30.24,West,266,0.0,-999.0,38,-99.99,,,-99.99,,2013-03-02 07:01:00,
2013-03-01 23:11:00,56.0,30.0,30.24,West,266,0.0,-999.0,37,-99.99,,,-99.99,,2013-03-02 07:11:00,
2013-03-01 23:21:00,56.0,30.0,30.24,West,266,0.0,-999.0,37,-99.99,,,-99.99,,2013-03-02 07:21:00,
2013-03-01 23:32:00,55.0,30.0,30.23,West,266,0.0,-999.0,38,-99.99,,,-99.99,,2013-03-02 07:32:00,
2013-03-01 23:42:00,55.0,30.0,30.23,West,266,0.0,-999.0,38,-99.99,,,-99.99,,2013-03-02 07:42:00,
2013-03-01 23:51:00,55.0,30.0,30.23,West,266,0.0,-999.0,38,-99.99,,,-99.99,,2013-03-02 07:51:00,